Weather History for Morristown, NJ

Change the Weather History Date:

Thursday, September 19, 2013

  Actual Average Record
Temperature  
Mean Temperature 58 °F -  
Max Temperature 75 °F 74 °F 92 °F (1946)
Min Temperature 41 °F 52 °F 34 °F (1939)
Degree Days  
Heating Degree Days 7    
Growing Degree Days 8 (Base 50)    
Moisture  
Dew Point 44 °F    
Average Humidity 79    
Maximum Humidity 94    
Minimum Humidity 36    
Precipitation  
Precipitation 0.00 in - - ()
Sea Level Pressure  
Sea Level Pressure 30.16 in    
Wind  
Wind Speed 1 mph (SW)    
Max Wind Speed 12 mph    
Max Gust Speed -    
Visibility 7 miles    
Events Fog    
Averages and records for this station are not official NWS values.
T = Trace of Precipitation, MM = Missing Value Source: NWS Daily Summary

Daily Weather History Graph

Daily Weather History Graph

Search for Another Location

Airport:

Trip Planner

Search our weather history database for the weather conditions in past years. The results will help you decide how hot, cold, wet, or windy it might be!

Date:

Astronomy

Sep. 19, 2013 Rise Set
Actual Time 6:42 AM EDT 6:59 PM EDT
Civil Twilight 6:15 AM EDT 7:26 PM EDT
Nautical Twilight 5:42 AM EDT 7:59 PM EDT
Astronomical Twilight 5:09 AM EDT 8:31 PM EDT
Moon 6:55 PM EDT 6:49 AM EDT
Length of Visible Light 13h 11m
Length of Day
12h 17m
Full, 100% of the Moon is Illuminated
Sep 19
Full
Sep 26
Last Quarter
Oct 4
New
Oct 11
First Quarter
Oct 18
Full

Hourly Weather History & Observations

Time (EDT) Temp. Dew Point Humidity Pressure Visibility Wind Dir Wind Speed Gust Speed Precip Events Conditions
12:15 AM 44.6 °F 42.8 °F 93% 30.21 in 0.5 mi Calm Calm - N/A Fog Fog
12:35 AM 46.4 °F 44.6 °F 93% 30.20 in 4.0 mi Calm Calm - N/A   Clear
12:55 AM 44.6 °F 41.0 °F 87% 30.20 in 10.0 mi Calm Calm - N/A   Clear
1:15 AM 44.6 °F 41.0 °F 87% 30.21 in 2.5 mi Calm Calm - N/A   Clear
1:35 AM 44.6 °F 41.0 °F 87% 30.21 in 0.5 mi Calm Calm - N/A Fog Fog
1:55 AM 44.6 °F 41.0 °F 87% 30.21 in 1.0 mi Calm Calm - N/A   Overcast
2:15 AM 44.6 °F 41.0 °F 87% 30.20 in 10.0 mi Calm Calm - N/A   Scattered Clouds
2:35 AM 42.8 °F 41.0 °F 93% 30.20 in 10.0 mi Calm Calm - N/A   Clear
2:55 AM 42.8 °F 39.2 °F 87% 30.19 in 1.2 mi Calm Calm - N/A   Mist
3:15 AM 42.8 °F 39.2 °F 87% 30.19 in 0.5 mi Calm Calm - N/A Fog Fog
3:35 AM 41.0 °F 39.2 °F 93% 30.18 in 4.0 mi Calm Calm - N/A   Mostly Cloudy
3:55 AM 42.8 °F 39.2 °F 87% 30.18 in 10.0 mi Calm Calm - N/A   Scattered Clouds
4:15 AM 41.0 °F 39.2 °F 93% 30.19 in 3.0 mi Calm Calm - N/A   Scattered Clouds
4:35 AM 41.0 °F 39.2 °F 93% 30.19 in 5.0 mi Calm Calm - N/A   Scattered Clouds
4:55 AM 41.0 °F 39.2 °F 93% 30.18 in 10.0 mi Calm Calm - N/A   Mostly Cloudy
5:15 AM 41.0 °F 39.2 °F 93% 30.18 in 1.2 mi Calm Calm - N/A   Overcast
5:35 AM 41.0 °F 37.4 °F 87% 30.19 in 10.0 mi Calm Calm - N/A   Scattered Clouds
5:55 AM 41.0 °F 37.4 °F 87% 30.18 in 3.0 mi Calm Calm - N/A   Clear
6:15 AM 41.0 °F 37.4 °F 87% 30.19 in 1.8 mi Calm Calm - N/A   Mist
6:35 AM 41.0 °F 37.4 °F 87% 30.19 in 1.0 mi Calm Calm - N/A   Mostly Cloudy
6:45 AM 41.0 °F 39.2 °F 93% 30.19 in 7.0 mi Calm Calm - N/A   Clear
7:45 AM 44.6 °F 42.8 °F 93% 30.20 in 10.0 mi Calm Calm - N/A   Clear
8:45 AM 51.8 °F 48.2 °F 88% 30.19 in 10.0 mi Calm Calm - N/A   Clear
9:45 AM 60.8 °F 50.0 °F 68% 30.19 in 10.0 mi Calm Calm - N/A   Clear
10:45 AM 66.2 °F 51.8 °F 60% 30.17 in 10.0 mi Calm Calm - N/A   Clear
11:45 AM 69.8 °F 50.0 °F 49% 30.16 in 10.0 mi Calm Calm - N/A   Clear
12:45 PM 73.4 °F 48.2 °F 41% 30.15 in 10.0 mi West 11.5 mph - N/A   Clear
1:45 PM 73.4 °F 48.2 °F 41% 30.13 in 10.0 mi ESE 4.6 mph - N/A   Clear
2:45 PM 75.2 °F 46.4 °F 36% 30.11 in 10.0 mi WSW 9.2 mph - N/A   Clear
3:45 PM 75.2 °F 48.2 °F 38% 30.09 in 10.0 mi SSW 9.2 mph - N/A   Clear
4:45 PM 75.2 °F 50.0 °F 41% 30.09 in 10.0 mi SW 6.9 mph - N/A   Clear
5:45 PM 73.4 °F 48.2 °F 41% 30.08 in 10.0 mi SW 5.8 mph - N/A   Clear
6:45 PM 68.0 °F 53.6 °F 60% 30.08 in 10.0 mi Calm Calm - N/A   Clear
7:45 PM 57.2 °F 51.8 °F 82% 30.10 in 10.0 mi Calm Calm - N/A   Clear
8:45 PM 53.6 °F 51.8 °F 94% 30.11 in 10.0 mi Calm Calm - N/A   Clear
10:55 PM 51.8 °F 48.2 °F 88% 30.10 in 10.0 mi Calm Calm - N/A   Clear
11:15 PM 51.8 °F 48.2 °F 88% 30.09 in 10.0 mi Calm Calm - N/A   Clear
11:35 PM 50.0 °F 46.4 °F 87% 30.09 in 10.0 mi Calm Calm - N/A   Clear
11:55 PM 50.0 °F 46.4 °F 87% 30.09 in 10.0 mi Calm Calm - N/A   Clear